Regional Weather Roundup
Issued by NWS

Home | Current Version | Previous Version | Text Only | Print | Product List | Glossary Off
Versions: 1 2 3 4 5 6 7 8 9 10 11 12 13 14 15 16 17 18 19 20 21 22 23 24 25 26 27

000
ASUS45 KPSR 300510
RWRAZ

ARIZONA HOURLY REGIONAL WEATHER ROUNDUP
NATIONAL WEATHER SERVICE PHOENIX AZ
1000 PM MST FRI APR 29 2016

NOTE: FAIR INDICATES FEW OR NO CLOUDS BELOW 12,000 FEET WITH NO
SIGNIFICANT WEATHER AND/OR OBSTRUCTIONS TO VISIBILITY.

AZZ001>003-036-300600-
NORTHWEST ARIZONA

CITY           SKY/WX    TMP DP  RH WIND       PRES   REMARKS
BULLHEAD CITY  PTCLDY    73  39  29 CALM      29.70S
KINGMAN        PTCLDY    60  34  37 S10       29.80F
$$

AZZ004>008-015-016-018-300600-
NORTH CENTRAL ARIZONA

CITY           SKY/WX    TMP DP  RH WIND       PRES   REMARKS
GRAND CANYON   MOCLDY    39  33  79 CALM      29.93S
WILLIAMS       CLOUDY    43  28  56 SW6       30.01S
PRESCOTT       PTCLDY    47  36  65 S6        29.90S
FLAGSTAFF      PTCLDY    34  34 100 CALM      29.95S
PAYSON         MOCLDY    45  43  93 NE5       29.95S
PAGE           CLOUDY    56  35  45 W6        29.85R
$$

AZZ009>014-017-300600-
NORTHEAST ARIZONA

CITY           SKY/WX    TMP DP  RH WIND       PRES   REMARKS
WINSLOW        MOCLDY    50  37  61 SW15      29.89S
SAINT JOHNS    CLOUDY    46  36  68 W13       29.93R
WINDOW ROCK    CLOUDY    41  37  86 NE3       29.91S
SHOW LOW       LGT RAIN  39  36  87 W10G20    29.99R WCI  32
$$

AZZ023-300600-
GREATER PHOENIX AREA

CITY           SKY/WX    TMP DP  RH WIND       PRES   REMARKS
PHOENIX        PTCLDY    74  35  24 SW9       29.77R
BUCKEYE        CLEAR     72  34  25 SW8       29.78F
LUKE AFB       CLEAR     71  37  28 SW8       29.76S
DEER VALLEY    PTCLDY    72  34  24 SW8       29.77S
SCOTTSDALE     PTCLDY    74  33  22 SW8       29.80R
MESA-GATEWAY   PTCLDY    70  36  28 SW6       29.80R
$$

AZZ027-028-300600-
SOUTHWEST MARICOPA COUNTY AND PINAL COUNTY

CITY           SKY/WX    TMP DP  RH WIND       PRES   REMARKS
CASA GRANDE    CLEAR     68  32  26 W8        29.82S
GILA BEND      FAIR      71  35  26 S9        29.77S
$$

AZZ503-504-507>509-300600-
SOUTHEAST ARIZONA

CITY           SKY/WX    TMP DP  RH WIND       PRES   REMARKS
TUCSON         CLEAR     65  31  28 W5        29.88S
DAVIS-MONTHAN  CLEAR     65  32  28 SW6       29.86S
NOGALES        CLEAR     55  32  41 CALM      29.92F
SIERRA VISTA   CLEAR     55  29  37 SW7       29.95F
DOUGLAS        CLEAR     53  27  36 N10       29.92S
SAFFORD        PTCLDY    60  30  32 NW7       29.86S
$$

AZZ020-021-025-026-031-300600-
SOUTHWEST ARIZONA

CITY           SKY/WX    TMP DP  RH WIND       PRES   REMARKS
YUMA           CLEAR     70  48  45 S9        29.78S
$$

CAZ031-033-041-043-047-048-061-300600-
SOUTHERN CALIFORNIA

CITY           SKY/WX    TMP DP  RH WIND       PRES   REMARKS
DOWNTOWN L.A.  CLEAR     58  50  75 S3        29.91S
L.A. AIRPORT   PTCLDY    57  51  80 SW8       29.92S
SAN DIEGO      CLOUDY    61  51  70 NW3       29.97S
BURBANK        CLEAR     57  48  72 SE8       29.90S
ONTARIO        PTCLDY    57  50  77 W6        29.91F
RIVERSIDE      CLEAR     58  49  72 W5        29.91S
PALM SPRINGS   CLEAR     73  44  35 W6        29.76R
EL CENTRO NAS  CLEAR    N/A N/A N/A W23       29.78S
IMPERIAL       CLEAR     71  44  37 W16       29.75R
BLYTHE         CLEAR     76  44  32 SW18      29.72S
NEEDLES        PTCLDY    75  36  24 W10       29.69F
$$

NVZ020-UTZ003-300600-
SOUTHERN NEVADA-UTAH

CITY           SKY/WX    TMP DP  RH WIND       PRES   REMARKS
LAS VEGAS      PTCLDY    70  31  23 SW3       29.66F
SALT LAKE CITY MOCLDY    50  39  66 N5        29.86R
$$

NMZ009-TXZ055-300600-
NEW MEXICO-WEST TEXAS

CITY           SKY/WX    TMP DP  RH WIND       PRES   REMARKS
ALBUQUERQUE    CLOUDY    50  35  56 W6        29.90R
EL PASO        CLEAR     64  28  25 NW14G22   29.87R
$$


........................KEY........................
SKY/WX - SKY CONDITION/WEATHER
TMP    - TEMPERATURE IN FAHRENHEIT
DP     - DEW POINT IN FAHRENHEIT
RH     - RELATIVE HUMIDITY IN PERCENT
WIND   - DIRECTION AND SPEED IN MILES PER HOUR (MPH)
VRB    - VARIABLE WIND DIRECTION
PRES   - MEAN SEA LEVEL PRESSURE IN INCHES OF MERCURY
         F - FALLING PRESSURE   R - RISING PRESSURE
         S - STEADY PRESSURE
VSB    - VISIBILITY IN MILES
HX     - HEAT INDEX IN FAHRENHEIT
WCI    - WIND CHILL INDEX IN FAHRENHEIT
TC     - TEMPERATURE IN CELSIUS WHICH IS ALSO KNOWN AS
         TEMPERATURE IN CENTIGRADE
AFB    - AIR FORCE BASE
         LUKE AFB IS LUKE AIR FORCE BASE
         DAVIS-MONTHAN IS DAVIS-MONTHAN AIR FORCE BASE
NAS    - NAVAL AIR STATION
         EL CENTRO NAS IS EL CENTRO NAVAL AIR STATION
N/A    - NOT AVAILABLE





USA.gov is the U.S. government's official web portal to all federal, state and local government web resources and services.